Location: Star Hoppers Observatory
(42.7905°N, 83.6127°W)
Time: 04:19:26
(UTC-04:00)

Amateur Radio Satellites - All Passes

Search period start: 30 September 2016 03:49
Search period end: 01 October 2016 03:49
Location: Star Hoppers Observatory, 42.7905°N, 83.6127°W

Satellite Date Start Highest point End Downlink Frequencies (MHz)
Time Altitude Azimuth
ISS 30 Sep 03:53:43 03:56:09 19° 226° (SW) 03:58:34 145.825
RS-15 30 Sep 03:57:44 04:09:27 45° 38° (NE) 04:20:59 29.354- 29.394
AO-7 30 Sep 03:58:09 04:04:07 21° 92° (E) 04:10:03 29.400- 29.500
JAS-2 30 Sep 04:16:48 04:19:01 11° 313° (NW) 04:21:13 435.910
AIST 2 30 Sep 04:18:05 04:22:11 85° 124° (SE) 04:26:21 435.215
CUBESAT XI-V 30 Sep 04:18:31 04:19:10 10° 58° (ENE) 04:19:49 437.345
MOZHAYETS 4 30 Sep 04:24:54 04:29:27 79° 77° (ENE) 04:34:05
KKS-1 30 Sep 04:33:07 04:37:31 64° 73° (ENE) 04:41:55 437.445
ITUPSAT 1 30 Sep 04:34:47 04:37:46 16° 269° (W) 04:40:47 437.325
Cosmos 2491 30 Sep 04:40:51 04:47:21 24° 281° (W) 04:53:51 435.465 / 435.565
CUSAT 1 30 Sep 04:41:03 04:43:45 12° 51° (NE) 04:46:19 437.405
PCSat 30 Sep 04:43:13 04:48:29 57° 115° (ESE) 04:53:49 145.827
AO-85 30 Sep 04:44:18 04:46:49 15° 37° (NE) 04:49:14 145.980
ITAMSAT 1 30 Sep 04:46:34 04:51:50 85° 106° (ESE) 04:57:05 435.822/435.867
SWISSCUBE 30 Sep 04:48:39 04:49:45 11° 272° (W) 04:50:52 437.505
STARS 30 Sep 05:00:13 05:04:32 60° 73° (ENE) 05:08:51 437.465
Cosmos 2504 30 Sep 05:00:49 05:08:12 89° 96° (E) 05:15:24 435.465 / 435.565
Gurwin Techsat 1B 30 Sep 05:06:16 05:10:10 21° 298° (WNW) 05:14:03 435.225
YUBILEINY 30 Sep 05:40:51 05:47:53 26° 295° (WNW) 05:54:58 435.215
HORYU 2 30 Sep 05:44:35 05:47:18 16° 92° (E) 05:49:59 437.375
AIST 1 30 Sep 05:47:10 05:51:29 61° 95° (E) 05:55:48
AO-7 30 Sep 05:49:27 05:57:46 83° 291° (WNW) 06:06:04 29.400- 29.500
CUBESAT XI-V 30 Sep 05:51:02 05:55:44 83° 76° (ENE) 06:00:29 437.345
AIST 2 30 Sep 05:58:58 06:01:14 14° 322° (NW) 06:03:32 435.215
MOZHAYETS 4 30 Sep 06:06:26 06:07:12 10° 272° (W) 06:07:57
RS-15 30 Sep 06:10:36 06:22:52 71° 244° (WSW) 06:34:49 29.354- 29.394
KKS-1 30 Sep 06:12:34 06:14:30 13° 270° (W) 06:16:25 437.445
STRAND 1 30 Sep 06:19:34 06:20:30 10° 56° (NE) 06:21:26 437.568
CUSAT 1 30 Sep 06:20:13 06:27:47 57° 74° (ENE) 06:34:01 437.405
AO-85 30 Sep 06:23:40 06:27:49 75° 239° (WSW) 06:31:43 145.980
O/OREOS (USA 219) 30 Sep 06:25:23 06:25:44 10° 96° (E) 06:26:05 437.305
PCSat 30 Sep 06:27:46 06:32:14 25° 314° (NW) 06:36:43 145.827
ITAMSAT 1 30 Sep 06:27:58 06:30:34 14° 302° (WNW) 06:33:12 435.822/435.867
DANDE 30 Sep 06:31:18 06:38:56 37° 68° (ENE) 06:46:02 436.750
STARS 30 Sep 06:39:13 06:41:16 13° 269° (W) 06:43:18 437.465
NOAA 15 30 Sep 06:40:27 06:43:58 18° 91° (E) 06:47:27 137.62
BRITE-PL 30 Sep 06:48:12 06:52:45 43° 97° (E) 06:56:56 437.365/2234.400
LilacSat-2 30 Sep 06:52:54 06:55:13 15° 92° (E) 06:57:33 437.200
Cosmos 2504 30 Sep 06:58:15 07:02:36 16° 298° (WNW) 07:06:56 435.465 / 435.565
CUTE-I 30 Sep 07:04:14 07:08:35 25° 94° (E) 07:12:55 437.470
Cubesat XI-IV 30 Sep 07:04:54 07:09:15 25° 94° (E) 07:13:35 437.490
HORYU 2 30 Sep 07:19:48 07:24:09 51° 288° (WNW) 07:28:27 437.375
AIST 1 30 Sep 07:27:32 07:29:31 13° 293° (WNW) 07:31:28
CUBESAT XI-V 30 Sep 07:33:02 07:33:43 10° 273° (W) 07:34:24 437.345
AO-7 30 Sep 07:43:41 07:49:22 21° 311° (NW) 07:55:03 29.400- 29.500
STRAND 1 30 Sep 07:53:41 07:58:46 75° 74° (ENE) 08:03:54 437.568
O/OREOS (USA 219) 30 Sep 07:59:50 08:04:23 81° 292° (WNW) 08:09:01 437.305
GOMX 1 30 Sep 08:02:45 08:07:07 74° 286° (WNW) 08:11:17 467.674
CUSAT 1 30 Sep 08:03:02 08:09:11 28° 277° (W) 08:14:28 437.405
NOAA 18 30 Sep 08:05:52 08:11:20 67° 103° (ESE) 08:16:47 137.9125
HO-68 30 Sep 08:06:10 08:10:29 17° 89° (E) 08:14:47 435.675
GONETS M04 30 Sep 08:06:38 08:13:29 26° 81° (E) 08:20:21
Cosmos 2499 30 Sep 08:07:19 08:11:36 17° 80° (E) 08:15:52 435.465 / 435.565
DOVE 4 30 Sep 08:11:12 08:15:19 55° 100° (E) 08:19:22 437.250
DANDE 30 Sep 08:13:55 08:22:03 56° 268° (W) 08:29:28 436.750
NOAA 15 30 Sep 08:18:54 08:24:09 61° 288° (WNW) 08:29:19 137.62
LilacSat-2 30 Sep 08:26:05 08:29:41 38° 288° (WNW) 08:33:17 437.200
RS-15 30 Sep 08:26:19 08:32:56 17° 265° (W) 08:39:29 29.354- 29.394
BRITE-PL 30 Sep 08:27:26 08:30:52 20° 297° (WNW) 08:34:07 437.365/2234.400
SEEDS 30 Sep 08:35:29 08:37:30 13° 90° (E) 08:39:30 437.485
CUTE 1.7 + AOD 2 30 Sep 08:37:50 08:41:02 20° 93° (E) 08:44:14 437.475
CANX-2 30 Sep 08:39:22 08:42:54 24° 94° (E) 08:46:25 2200.000
CUTE-I 30 Sep 08:43:43 08:48:48 45° 291° (WNW) 08:53:53 437.470
Cubesat XI-IV 30 Sep 08:44:25 08:49:30 45° 291° (WNW) 08:54:34 437.490
BEESAT 3 30 Sep 08:52:34 08:55:33 20° 43° (NE) 08:58:31 437.485
CINEMA 3 30 Sep 09:04:16 09:08:23 53° 100° (E) 09:12:35 145.822/145.860
PRISM 30 Sep 09:19:38 09:23:42 54° 73° (ENE) 09:27:48 437.425
COMPASS 1 30 Sep 09:35:53 09:39:55 41° 98° (E) 09:43:53 437.405
ANTELSAT 30 Sep 09:36:02 09:37:10 11° 61° (ENE) 09:38:19 437.575/2403.000
STRAND 1 30 Sep 09:36:06 09:38:30 13° 271° (W) 09:40:55 437.568
O/OREOS (USA 219) 30 Sep 09:43:19 09:44:36 11° 313° (NW) 09:45:54 437.305
FUNcube-1 30 Sep 09:47:30 09:50:26 17° 92° (E) 09:53:24 145.935
NOAA 18 30 Sep 09:47:46 09:51:27 19° 300° (WNW) 09:55:08 137.9125
DOVE 4 30 Sep 09:50:31 09:52:34 13° 297° (WNW) 09:54:36 437.250
HO-68 30 Sep 09:51:53 09:59:05 89° 293° (WNW) 10:06:15 435.675
BEESAT 2 30 Sep 09:53:03 09:56:49 36° 50° (NE) 10:00:32 435.950
TIGRISAT 30 Sep 09:54:08 09:56:45 16° 64° (ENE) 09:59:23 435.000
CUBEBUG 2 30 Sep 09:54:09 09:58:22 51° 100° (E) 10:02:42 437.445
Cosmos 2499 30 Sep 09:56:39 10:03:46 79° 279° (W) 10:10:53 435.465 / 435.565
GONETS M04 30 Sep 10:00:40 10:09:29 70° 281° (W) 10:18:21
DANDE 30 Sep 10:01:37 10:02:56 10° 287° (WNW) 10:04:14 436.750
UWE-3 30 Sep 10:06:43 10:10:55 46° 99° (E) 10:15:12 435.000/436.395/437.385
SEEDS 30 Sep 10:09:21 10:13:33 56° 286° (WNW) 10:17:42 437.485
CUTE 1.7 + AOD 2 30 Sep 10:13:02 10:16:59 36° 289° (WNW) 10:20:56 437.475
CANX-2 30 Sep 10:14:58 10:18:45 31° 291° (WNW) 10:22:32 2200.000
Oscar 11 30 Sep 10:23:09 10:27:19 42° 98° (E) 10:31:27 145.826/435.025
AAUSAT CUBESAT 2 30 Sep 10:24:12 10:28:24 72° 285° (WNW) 10:32:33 437.432
BEESAT 3 30 Sep 10:29:36 10:33:26 47° 242° (WSW) 10:37:14 437.485
ZACube-1 30 Sep 10:30:02 10:34:19 53° 100° (E) 10:38:40 437.345
UNISAT 6 30 Sep 10:33:57 10:38:00 44° 72° (ENE) 10:42:04 437.425
CINEMA 3 30 Sep 10:42:52 10:45:08 14° 296° (WNW) 10:47:25 145.822/145.860
PRISM 30 Sep 10:57:19 10:59:19 13° 269° (W) 11:01:21 437.425
JAS-2 30 Sep 10:57:52 11:02:31 20° 54° (NE) 11:07:27 435.910
PHONESAT 2.4 30 Sep 10:58:08 11:00:40 27° 161° (SSE) 11:03:13 2401.200-2431.200
AIST 2 30 Sep 11:02:01 11:03:32 12° 35° (NE) 11:05:05 435.215
ANTELSAT 30 Sep 11:09:00 11:13:16 76° 259° (W) 11:17:33 437.575/2403.000
DUCHIFAT 1 30 Sep 11:11:37 11:13:45 14° 63° (ENE) 11:15:54 145.980
COMPASS 1 30 Sep 11:12:14 11:15:09 18° 295° (WNW) 11:18:04 437.405
QB50P1 30 Sep 11:16:01 11:18:50 18° 65° (ENE) 11:21:39 145.935-145.965
DELFI C3 30 Sep 11:21:18 11:25:20 77° 101° (E) 11:29:20 145.870
FUNcube-1 30 Sep 11:22:43 11:26:52 44° 288° (WNW) 11:31:05 145.935
TIGRISAT 30 Sep 11:28:58 11:33:05 48° 261° (W) 11:37:12 435.000
POPSAT HIP 1 30 Sep 11:29:12 11:32:32 23° 67° (ENE) 11:35:53 437.405
BEESAT 2 30 Sep 11:31:18 11:34:25 22° 247° (WSW) 11:37:31 435.950
CUBEBUG 2 30 Sep 11:32:00 11:34:38 16° 296° (WNW) 11:37:18 437.445
HO-68 30 Sep 11:41:09 11:45:51 19° 306° (NW) 11:50:34 435.675
NANOSAT C BR1 30 Sep 11:43:08 11:46:50 31° 69° (ENE) 11:50:33 145.865
UWE-3 30 Sep 11:44:10 11:47:02 18° 295° (WNW) 11:49:59 435.000/436.395/437.385
PCSat 30 Sep 11:48:46 11:50:52 12° 34° (NNE) 11:52:58 145.827
ESTCUBE 1 30 Sep 11:52:30 11:54:39 13° 90° (E) 11:56:47 437.505/2401.250
Cosmos 2499 30 Sep 11:54:57 11:58:12 13° 301° (WNW) 12:01:27 435.465 / 435.565
Oscar 11 30 Sep 12:00:03 12:03:09 19° 295° (WNW) 12:06:14 145.826/435.025
HUMSAT D 30 Sep 12:02:34 12:06:50 76° 285° (WNW) 12:11:08 437.325/437.525
GONETS M04 30 Sep 12:03:29 12:08:10 15° 304° (NW) 12:12:53
ZACube-1 30 Sep 12:07:34 12:10:11 16° 296° (WNW) 12:12:52 437.345
QB50P2 30 Sep 12:08:41 12:12:52 69° 74° (ENE) 12:17:03 145.880/145.840
POLYITAN 1 30 Sep 12:10:53 12:15:02 69° 76° (ENE) 12:19:13 437.675
UNISAT 6 30 Sep 12:12:16 12:14:57 16° 268° (W) 12:17:39 437.425
AISAT 30 Sep 12:32:23 12:35:19 17° 92° (E) 12:38:13 437.250
PHONESAT 2.4 30 Sep 12:33:37 12:36:30 53° 177° (S) 12:39:22 2401.200-2431.200
BUGSAT 1 30 Sep 12:35:56 12:39:50 45° 72° (ENE) 12:43:43 437.445
AIST 2 30 Sep 12:38:36 12:42:49 70° 56° (NE) 12:46:59 435.215
JAS-2 30 Sep 12:39:45 12:46:22 89° 80° (E) 12:53:53 435.910
DUCHIFAT 1 30 Sep 12:44:53 12:48:58 56° 259° (W) 12:53:06 145.980
QB50P1 30 Sep 12:50:18 12:54:17 42° 261° (W) 12:58:18 145.935-145.965
DX 1 30 Sep 12:57:59 13:01:04 19° 93° (E) 13:04:09 434.975-435.025
POPSAT HIP 1 30 Sep 13:04:27 13:08:10 30° 263° (W) 13:11:55 437.405
Gurwin Techsat 1B 30 Sep 13:10:45 13:13:22 14° 58° (ENE) 13:15:59 435.225
CUBEBUG 1 30 Sep 13:11:36 13:15:52 57° 100° (E) 13:20:06 437.445
VELOX 1 30 Sep 13:14:44 13:18:59 46° 99° (E) 13:23:12 145.980
NANOSAT C BR1 30 Sep 13:19:17 13:22:36 22° 266° (W) 13:25:55 145.865
Oscar 19 30 Sep 13:27:14 13:31:59 37° 68° (ENE) 13:36:44 437.125/150
ESTCUBE 1 30 Sep 13:27:22 13:31:53 63° 286° (WNW) 13:36:20 437.505/2401.250
PCSat 30 Sep 13:30:13 13:35:33 54° 55° (NE) 13:40:50 145.827
50 SAT 30 Sep 13:35:04 13:38:45 84° 99° (E) 13:42:24 437.505
SPROUT 30 Sep 13:39:08 13:43:17 48° 100° (E) 13:47:23 437.525
QB50P2 30 Sep 13:48:27 13:49:07 10° 271° (W) 13:49:47 145.880/145.840
POLYITAN 1 30 Sep 13:50:45 13:51:18 10° 271° (W) 13:51:51 437.675
AUBIESAT-1 30 Sep 13:50:45 13:53:50 36° 104° (ESE) 13:56:57 437.475
YUBILEINY 30 Sep 13:51:02 13:58:57 37° 70° (ENE) 14:06:48 435.215
Cosmos 2491 30 Sep 13:52:25 13:57:30 17° 75° (ENE) 14:02:34 435.465 / 435.565
UKube-1 30 Sep 13:58:56 14:03:15 67° 102° (ESE) 14:07:32 .
AISAT 30 Sep 14:07:49 14:12:00 44° 289° (WNW) 14:16:10 437.250
PHONESAT 2.4 30 Sep 14:09:38 14:12:23 36° 194° (SSW) 14:15:08 2401.200-2431.200
BUGSAT 1 30 Sep 14:13:05 14:15:26 15° 268° (W) 14:17:47 437.445
AIST 2 30 Sep 14:19:05 14:20:43 12° 252° (WSW) 14:22:22 435.215
ITAMSAT 1 30 Sep 14:27:58 14:31:35 20° 61° (ENE) 14:35:12 435.822/435.867
JAS-2 30 Sep 14:28:25 14:32:31 17° 276° (W) 14:36:53 435.910
M-CUBED/EXP-1 PRIME 30 Sep 14:30:40 14:33:50 45° 292° (WNW) 14:36:59 437.505
DX 1 30 Sep 14:33:22 14:37:25 40° 290° (WNW) 14:41:27 434.975-435.025
Gurwin Techsat 1B 30 Sep 14:47:14 14:52:33 87° 255° (WSW) 14:57:55 435.225
TISAT 1 30 Sep 14:49:06 14:53:13 55° 100° (E) 14:57:19 437.305
CUBEBUG 1 30 Sep 14:49:18 14:51:41 15° 297° (WNW) 14:54:04 437.445
Cosmos 2504 30 Sep 14:51:30 14:58:07 33° 71° (ENE) 15:05:06 435.465 / 435.565
VELOX 1 30 Sep 14:52:07 14:55:06 18° 296° (WNW) 14:58:04 145.980
ITUPSAT 1 30 Sep 14:56:19 14:58:36 13° 90° (E) 15:00:54 437.325
SO-50 30 Sep 14:57:13 15:01:31 33° 115° (ESE) 15:05:48 436.795
AO-7 30 Sep 14:57:50 15:05:04 35° 57° (ENE) 15:12:17 29.400- 29.500
SWISSCUBE 30 Sep 15:06:50 15:10:18 20° 93° (E) 15:13:45 437.505
Oscar 19 30 Sep 15:06:53 15:11:20 29° 265° (W) 15:15:49 437.125/150
PCSat 30 Sep 15:14:23 15:18:33 23° 253° (WSW) 15:22:40 145.827
SPROUT 30 Sep 15:16:10 15:18:50 16° 296° (WNW) 15:21:28 437.525
BEESAT 30 Sep 15:19:13 15:23:02 23° 94° (E) 15:26:50 436.000
AUBIESAT-1 30 Sep 15:26:25 15:28:02 13° 300° (WNW) 15:29:40 437.475
UKube-1 30 Sep 15:36:49 15:38:45 13° 299° (WNW) 15:40:39 .
Cosmos 2491 30 Sep 15:44:05 15:52:53 84° 96° (E) 16:01:47 435.465 / 435.565
PHONESAT 2.4 30 Sep 15:46:53 15:47:58 12° 209° (SSW) 15:49:03 2401.200-2431.200
YUBILEINY 30 Sep 15:47:42 15:55:59 51° 271° (W) 16:04:14 435.215
AIST 1 30 Sep 15:54:22 15:57:07 16° 70° (ENE) 15:59:51
ITAMSAT 1 30 Sep 16:05:30 16:10:35 58° 259° (W) 16:15:43 435.822/435.867
MOZHAYETS 4 30 Sep 16:20:04 16:23:13 18° 92° (E) 16:26:21
KKS-1 30 Sep 16:25:38 16:26:56 11° 89° (E) 16:28:12 437.445
TISAT 1 30 Sep 16:26:13 16:28:25 14° 297° (WNW) 16:30:36 437.305
O/OREOS (USA 219) 30 Sep 16:30:20 16:34:09 25° 56° (ENE) 16:37:57 437.305
Gurwin Techsat 1B 30 Sep 16:32:02 16:33:15 11° 273° (W) 16:34:27 435.225
ITUPSAT 1 30 Sep 16:32:07 16:36:56 69° 286° (WNW) 16:41:42 437.325
SO-50 30 Sep 16:37:32 16:41:57 35° 312° (NW) 16:46:21 436.795
HORYU 2 30 Sep 16:43:36 16:46:28 17° 63° (ENE) 16:49:20 437.375
SWISSCUBE 30 Sep 16:43:43 16:48:19 47° 289° (WNW) 16:52:54 437.505
Cosmos 2504 30 Sep 16:44:32 16:51:42 50° 269° (W) 16:59:19 435.465 / 435.565
AO-7 30 Sep 16:49:16 16:57:26 59° 257° (WSW) 17:05:38 29.400- 29.500
BEESAT 30 Sep 16:56:28 17:00:56 39° 291° (WNW) 17:05:22 436.000
AIST 1 30 Sep 17:30:53 17:34:57 42° 267° (W) 17:38:58
GOMX 1 30 Sep 17:34:49 17:38:06 17° 63° (ENE) 17:41:18 467.674
Cosmos 2491 30 Sep 17:44:23 17:50:53 22° 298° (WNW) 17:57:27 435.465 / 435.565
CUBESAT XI-V 30 Sep 17:47:41 17:51:05 20° 92° (E) 17:54:28 437.345
NOAA 18 30 Sep 17:54:35 17:58:28 20° 61° (ENE) 18:02:23 137.9125
MOZHAYETS 4 30 Sep 17:56:09 18:00:38 48° 288° (WNW) 18:05:06
BRITE-PL 30 Sep 17:58:10 18:03:44 59° 73° (ENE) 18:09:10 437.365/2234.400
KKS-1 30 Sep 17:59:33 18:03:58 71° 286° (WNW) 18:08:22 437.445
NOAA 15 30 Sep 18:00:49 18:05:27 32° 66° (ENE) 18:10:07 137.62
O/OREOS (USA 219) 30 Sep 18:09:26 18:13:39 36° 254° (WSW) 18:17:49 437.305
GONETS M04 30 Sep 18:16:04 18:19:52 13° 54° (NE) 18:23:38
HORYU 2 30 Sep 18:18:21 18:22:37 49° 260° (W) 18:26:56 437.375
STARS 30 Sep 18:24:49 18:29:12 78° 284° (WNW) 18:33:34 437.465
CUTE-I 30 Sep 18:26:39 18:31:38 43° 69° (ENE) 18:36:39 437.470
Cubesat XI-IV 30 Sep 18:27:29 18:32:29 44° 69° (ENE) 18:37:31 437.490
RS-15 30 Sep 18:27:49 18:34:35 18° 96° (E) 18:41:30 29.354- 29.394
HO-68 30 Sep 18:37:18 18:41:17 16° 51° (NE) 18:45:16 435.675
LilacSat-2 30 Sep 19:08:16 19:12:00 73° 258° (WSW) 19:15:48 437.200
GOMX 1 30 Sep 19:10:22 19:15:42 68° 259° (W) 19:20:46 467.674
DOVE 4 30 Sep 19:16:37 19:21:31 64° 74° (ENE) 19:26:08 437.250
CUSAT 1 30 Sep 19:20:33 19:26:53 54° 92° (E) 19:34:24 437.405
CUBESAT XI-V 30 Sep 19:24:13 19:28:41 44° 289° (WNW) 19:33:05 437.345
SEEDS 30 Sep 19:29:16 19:30:24 11° 61° (ENE) 19:31:32 437.485
CUTE 1.7 + AOD 2 30 Sep 19:31:49 19:34:32 17° 64° (ENE) 19:37:15 437.475
NOAA 18 30 Sep 19:33:16 19:38:40 61° 258° (WSW) 19:44:05 137.9125
CANX-2 30 Sep 19:33:17 19:36:22 20° 66° (ENE) 19:39:28 2200.000
BRITE-PL 30 Sep 19:38:21 19:42:29 21° 269° (W) 19:46:34 437.365/2234.400
DANDE 30 Sep 19:40:18 19:45:03 29° 83° (E) 19:50:53 436.750
NOAA 15 30 Sep 19:40:19 19:45:08 35° 263° (W) 19:50:00 137.62
Cosmos 2499 30 Sep 19:45:28 19:52:30 38° 73° (ENE) 20:00:00 435.465 / 435.565
STRAND 1 30 Sep 20:03:58 20:08:06 24° 94° (E) 20:12:13 437.568
CINEMA 3 30 Sep 20:06:31 20:10:49 54° 74° (ENE) 20:14:58 145.822/145.860
CUTE-I 30 Sep 20:07:32 20:11:51 25° 266° (W) 20:16:11 437.470
Cubesat XI-IV 30 Sep 20:08:25 20:12:43 25° 266° (W) 20:17:04 437.490
GONETS M04 30 Sep 20:10:02 20:18:48 63° 78° (ENE) 20:27:26
HO-68 30 Sep 20:20:42 20:27:50 74° 71° (ENE) 20:34:59 435.675
COMPASS 1 30 Sep 20:27:20 20:31:00 30° 70° (ENE) 20:34:43 437.405
ISS 30 Sep 20:33:09 20:36:24 82° 145° (SE) 20:39:40 145.825
RS-15 30 Sep 20:33:11 20:44:42 75° 118° (ESE) 20:56:52 29.354- 29.394
AO-85 30 Sep 20:37:55 20:42:31 32° 115° (ESE) 20:46:53 145.980
FUNcube-1 30 Sep 20:44:43 20:47:01 15° 63° (ENE) 20:49:19 145.935
CUBEBUG 2 30 Sep 20:53:08 20:57:06 45° 72° (ENE) 21:01:04 437.445
DOVE 4 30 Sep 20:56:55 20:59:32 14° 269° (W) 21:02:05 437.250
SEEDS 30 Sep 21:01:16 21:05:28 76° 259° (W) 21:09:43 437.485
CUSAT 1 30 Sep 21:03:15 21:09:17 33° 294° (WNW) 21:16:11 437.405
UWE-3 30 Sep 21:04:38 21:08:29 39° 71° (ENE) 21:12:21 435.000/436.395/437.385
CUTE 1.7 + AOD 2 30 Sep 21:05:55 21:10:00 46° 261° (W) 21:14:08 437.475
CANX-2 30 Sep 21:07:59 21:11:57 38° 263° (W) 21:15:58 2200.000
AAUSAT CUBESAT 2 30 Sep 21:14:37 21:18:48 81° 73° (ENE) 21:22:59 437.432
Oscar 11 30 Sep 21:18:34 21:22:29 35° 70° (ENE) 21:26:27 145.826/435.025
DANDE 30 Sep 21:21:56 21:27:21 47° 289° (WNW) 21:34:20 436.750
ZACube-1 30 Sep 21:26:41 21:30:35 43° 72° (ENE) 21:34:32 437.345
Cosmos 2499 30 Sep 21:38:31 21:45:39 44° 271° (W) 21:53:18 435.465 / 435.565
STRAND 1 30 Sep 21:42:33 21:47:26 43° 290° (WNW) 21:52:17 437.568
CINEMA 3 30 Sep 21:45:59 21:48:14 14° 269° (W) 21:50:29 145.822/145.860
COMPASS 1 30 Sep 22:03:13 22:06:34 23° 266° (W) 22:09:57 437.405
DELFI C3 30 Sep 22:07:30 22:11:20 47° 73° (ENE) 22:15:13 145.870
GONETS M04 30 Sep 22:07:47 22:14:57 29° 278° (W) 22:22:04
ISS 30 Sep 22:10:30 22:13:11 23° 344° (NNW) 22:15:54 145.825
HO-68 30 Sep 22:11:01 22:16:12 21° 269° (W) 22:21:24 435.675
AO-85 30 Sep 22:18:08 22:22:55 38° 311° (NW) 22:27:26 145.980
FUNcube-1 30 Sep 22:18:50 22:22:50 50° 260° (W) 22:26:53 145.935
CUBEBUG 2 30 Sep 22:31:31 22:33:59 15° 269° (W) 22:36:26 437.445
PRISM 30 Sep 22:35:22 22:39:32 80° 103° (ESE) 22:43:37 437.425
UWE-3 30 Sep 22:42:22 22:45:08 17° 268° (W) 22:47:54 435.000/436.395/437.385
RS-15 30 Sep 22:47:16 22:58:18 42° 324° (NW) 23:09:49 29.354- 29.394
ESTCUBE 1 30 Sep 22:52:58 22:55:28 15° 62° (ENE) 22:57:59 437.505/2401.250
HUMSAT D 30 Sep 22:54:14 22:58:18 81° 78° (ENE) 23:02:28 437.325/437.525
Oscar 11 30 Sep 22:55:27 22:58:43 21° 267° (W) 23:02:02 145.826/435.025
ANTELSAT 30 Sep 23:00:09 23:03:33 21° 94° (E) 23:06:57 437.575/2403.000
ZACube-1 30 Sep 23:04:36 23:07:08 16° 269° (W) 23:09:39 437.345
TIGRISAT 30 Sep 23:19:18 23:23:15 31° 96° (E) 23:27:16 435.000
SO-50 30 Sep 23:27:37 23:31:55 37° 48° (NE) 23:36:05 436.795
AISAT 30 Sep 23:30:38 23:33:42 19° 64° (ENE) 23:36:45 437.250
M-CUBED/EXP-1 PRIME 30 Sep 23:44:03 23:46:55 20° 63° (ENE) 23:49:39 437.505
DELFI C3 30 Sep 23:44:20 23:46:26 14° 269° (W) 23:48:33 145.870
ISS 30 Sep 23:48:12 23:50:30 17° 4° (N) 23:52:48 145.825
JAS-2 30 Sep 23:50:40 23:54:58 16° 84° (E) 23:59:08 435.910
DX 1 30 Sep 23:54:24 23:57:32 20° 65° (ENE) 00:00:41 434.975-435.025
QB50P2 30 Sep 23:55:35 23:56:17 10° 89° (E) 23:57:00 145.880/145.840
POLYITAN 1 30 Sep 23:57:44 23:58:27 10° 89° (E) 23:59:10 437.675
UNISAT 6 01 Oct 00:00:42 00:05:09 89° 287° (WNW) 00:09:41 437.425
CUBEBUG 1 01 Oct 00:07:55 00:12:13 52° 73° (ENE) 00:16:30 437.445
50 SAT 01 Oct 00:12:13 00:15:37 38° 72° (ENE) 00:19:02 437.505
VELOX 1 01 Oct 00:12:30 00:16:44 45° 71° (ENE) 00:20:59 145.980
PRISM 01 Oct 00:13:46 00:14:11 10° 300° (WNW) 00:14:35 437.425
BEESAT 3 01 Oct 00:21:09 00:24:09 22° 113° (ESE) 00:27:12 437.485
ESTCUBE 1 01 Oct 00:27:16 00:31:45 63° 259° (WSW) 00:36:17 437.505/2401.250
DUCHIFAT 1 01 Oct 00:28:40 00:31:50 20° 94° (E) 00:34:59 145.980
SPROUT 01 Oct 00:33:13 00:37:12 40° 71° (ENE) 00:41:12 437.525
QB50P1 01 Oct 00:34:13 00:37:50 27° 96° (E) 00:41:25 145.935-145.965
ANTELSAT 01 Oct 00:36:14 00:40:21 38° 289° (WNW) 00:44:33 437.575/2403.000
AUBIESAT-1 01 Oct 00:36:54 00:40:48 62° 70° (ENE) 00:44:27 437.475
POPSAT HIP 1 01 Oct 00:47:50 00:51:46 37° 98° (E) 00:55:42 437.405
UKube-1 01 Oct 00:53:52 00:58:07 62° 73° (ENE) 01:02:25 .
TIGRISAT 01 Oct 00:56:10 00:59:50 26° 292° (WNW) 01:03:34 435.000
NANOSAT C BR1 01 Oct 01:01:39 01:05:46 51° 100° (E) 01:09:52 145.865
AISAT 01 Oct 01:05:32 01:09:49 46° 261° (W) 01:14:07 437.250
RS-15 01 Oct 01:05:45 01:15:22 26° 358° (N) 01:25:07 29.354- 29.394
SO-50 01 Oct 01:08:23 01:12:13 27° 246° (WSW) 01:15:59 436.795
M-CUBED/EXP-1 PRIME 01 Oct 01:17:34 01:21:16 34° 256° (WSW) 01:24:45 437.505
BEESAT 2 01 Oct 01:22:43 01:26:31 49° 119° (ESE) 01:30:23 435.950
ISS 01 Oct 01:24:36 01:27:40 35° 24° (NNE) 01:30:44 145.825
QB50P2 01 Oct 01:28:20 01:32:33 70° 285° (WNW) 01:36:45 145.880/145.840
DX 1 01 Oct 01:29:17 01:33:26 42° 261° (W) 01:37:36 434.975-435.025
POLYITAN 1 01 Oct 01:30:29 01:34:43 70° 285° (WNW) 01:38:55 437.675
JAS-2 01 Oct 01:33:14 01:41:10 79° 103° (ESE) 01:48:35 435.910
Oscar 19 01 Oct 01:40:15 01:41:49 11° 88° (E) 01:43:21 437.125/150
TISAT 1 01 Oct 01:41:15 01:45:15 45° 72° (ENE) 01:49:15 437.305
CUBEBUG 1 01 Oct 01:46:14 01:48:48 15° 269° (W) 01:51:22 437.445
50 SAT 01 Oct 01:47:18 01:49:16 14° 268° (W) 01:51:15 437.505
VELOX 1 01 Oct 01:50:26 01:53:25 18° 267° (W) 01:56:25 145.980
BUGSAT 1 01 Oct 01:51:48 01:55:49 71° 102° (ESE) 01:59:51 437.445
Cosmos 2491 01 Oct 01:53:44 02:02:08 44° 73° (ENE) 02:10:25 435.465 / 435.565
BEESAT 3 01 Oct 01:58:00 02:01:37 35° 311° (NW) 02:05:16 437.485
ITUPSAT 1 01 Oct 02:03:35 02:06:48 18° 62° (ENE) 02:10:02 437.325
DUCHIFAT 1 01 Oct 02:03:48 02:07:36 34° 290° (WNW) 02:11:24 145.980
QB50P1 01 Oct 02:09:59 02:13:31 27° 292° (WNW) 02:17:04 145.935-145.965
SPROUT 01 Oct 02:10:22 02:13:18 18° 267° (W) 02:16:15 437.525
SWISSCUBE 01 Oct 02:13:58 02:17:50 25° 65° (ENE) 02:21:44 437.505
AUBIESAT-1 01 Oct 02:15:03 02:15:31 10° 263° (W) 02:15:58 437.475
POPSAT HIP 1 01 Oct 02:24:14 02:27:19 20° 294° (WNW) 02:30:24 437.405
BEESAT 01 Oct 02:26:16 02:30:23 30° 67° (ENE) 02:34:30 436.000
UKube-1 01 Oct 02:32:46 02:34:34 12° 270° (W) 02:36:22 .
NANOSAT C BR1 01 Oct 02:38:38 02:41:04 15° 297° (WNW) 02:43:31 145.865
AIST 2 01 Oct 02:39:39 02:40:55 11° 108° (ESE) 02:42:11 435.215
YUBILEINY 01 Oct 02:53:04 03:01:03 41° 86° (E) 03:09:00 435.215
ISS 01 Oct 03:01:07 03:04:09 35° 222° (SW) 03:07:10 145.825
BEESAT 2 01 Oct 03:01:43 03:04:36 19° 317° (NW) 03:07:30 435.950
Gurwin Techsat 1B 01 Oct 03:02:53 03:07:44 35° 97° (E) 03:12:34 435.225
Oscar 19 01 Oct 03:16:37 03:21:48 86° 289° (WNW) 03:26:56 437.125/150
TISAT 1 01 Oct 03:18:34 03:21:06 16° 268° (W) 03:23:40 437.305
JAS-2 01 Oct 03:19:17 03:25:17 25° 303° (WNW) 03:31:07 435.910
RS-15 01 Oct 03:21:29 03:32:46 38° 32° (NNE) 03:43:55 29.354- 29.394
MOZHAYETS 4 01 Oct 03:22:54 03:26:08 19° 64° (ENE) 03:29:23
KKS-1 01 Oct 03:24:26 03:26:27 13° 61° (ENE) 03:28:27 437.445
BUGSAT 1 01 Oct 03:29:43 03:30:38 11° 299° (WNW) 03:31:32 437.445
Cosmos 2504 01 Oct 03:32:44 03:38:19 24° 83° (E) 03:43:48 435.465 / 435.565
ITUPSAT 1 01 Oct 03:39:34 03:44:12 54° 259° (W) 03:48:55 437.325
